SCP
4 5 6 7 6 5 4 4 3 3 3 3 2 2 1 1 1 1 1 1 1 1 1 1 1 1 1 1 1 1 1 0 0 0 0 0 0 0 0 0 0 0 0
4 4 5 6 5 5 4 4 3 3 3 3 3 2 2 1 1 1 1 1 1 1 1 1 1 1 1 1 1 1 1 0 0 0 0 0 0 0 0 0 0 0 0
3 4 5 5 5 5 4 4 3 3 3 4 4 3 2 2 1 1 1 1 1 1 1 1 1 1 1 1 1 1 1 0 0 0 0 0 0 0 0 0 0 0 0
3 4 4 5 4 4 4 4 4 4 4 4 4 4 3 2 2 2 1 1 1 1 1 1 1 1 1 0 0 0 0 0 0 0 0 0 0 0 0 0 0 0 0
3 3 3 3 3 4 4 5 4 4 4 4 4 4 3 3 2 2 1 1 1 1 1 1 1 1 0 0 0 0 0 0 0 0 0 0 0 0 0 0 0 0 0
2 2 2 2 2 3 5 5 4 4 4 4 4 3 3 3 3 2 2 1 1 1 1 1 1 0 0 0 0 0 0 0 0 0 0 0 0 0 0 0 0 0 0
2 2 1 2 2 3 4 5 4 4 4 4 4 3 3 3 3 3 2 2 1 1 1 0 0 0 0 0 0 0 0 0 0 0 0 0 0 0 0 0 0 0 0
1 1 1 1 2 3 4 4 3 3 3 4 4 3 2 2 3 2 2 1 0 0 0 0 0 0 0 0 0 0 0 0 0 0 0 0 0 0 0 0 0 0 0
0 0 1 1 1 2 2 2 2 2 3 3 3 2 1 1 1 1 1 0 0 0 0 0 0 0 0 0 0 0 0 0 0 0 0 0 0 0 0 0 0 0 0
0 0 0 0 0 1 1 1 2 2 2 2 2 1 0 0 0 0 0 0 0 0 0 0 0 0 0 0 0 0 0 0 0 0 0 0 0 0 0 0 0 0 0
0 0 0 0 0 0 0 0 1 1 1 1 0 0 0 0 0 0 0 0 0 0 0 0 0 0 0 0 0 0 0 0 0 0 0 0 0 0 0 0 0 0 0
0 0 0 0 0 0 0 0 0 0 0 0 0 0 0 0 0 0 0 0 0 0 0 0 0 0 0 0 0 0 0 0 0 0 0 0 0 0 0 0 0 0 0
0 0 0 0 0 0 0 0 0 0 0 0 0 0 0 0 0 0 0 0 0 0 0 0 0 0 0 0 0 0 0 0 0 0 0 0 0 0 0 0 0 0 0
0 0 0 0 0 0 0 0 0 0 0 0 0 0 0 0 0 0 0 0 0 0 0 0 0 0 0 0 0 0 0 0 0 0 0 0 0 0 0 0 0 0 0
0 0 0 0 0 0 0 0 0 0 0 0 0 0 0 0 0 0 0 0 0 0 0 0 0 0 0 0 0 0 0 0 0 0 0 0 0 0 0 0 0 0 0
0 0 0 0 0 0 0 0 0 0 0 0 0 0 0 0 0 0 0 0 0 0 0 0 0 0 0 0 0 0 0 0 0 0 0 0 0 0 0 0 0 0 0
0 0 0 0 0 0 0 0 0 0 0 0 0 0 0 0 0 0 0 0 0 0 0 0 0 0 0 0 0 0 0 0 0 0 0 0 0 0 0 0 0 0 0
0 0 0 0 0 0 0 0 0 0 0 0 0 0 0 0 0 0 0 0 0 0 0 0 0 0 0 0 0 0 0 0 0 0 0 0 0 0 0 0 0 0 0
0 0 0 0 0 0 0 0 0 0 0 0 0 0 0 0 0 0 0 0 0 0 0 0 0 0 0 0 0 0 0 0 0 0 0 0 0 0 0 0 0 0 0
0 0 0 0 0 0 0 0 0 0 0 0 0 0 0 0 0 0 0 0 0 0 0 0 0 0 0 0 0 0 0 0 0 0 0 0 0 0 0 0 0 0 0
0 0 0 0 0 0 0 0 0 0 0 0 0 0 0 0 0 0 0 0 0 0 0 0 0 0 0 0 0 0 0 0 0 0 0 0 0 0 0 0 0 0 0
0 0 0 0 0 0 0 0 0 0 0 0 0 0 0 0 0 0 0 0 0 0 0 0 0 0 0 0 0 0 0 0 0 0 0 0 0 0 0 0 0 0 0
0 0 0 0 0 0 0 0 0 0 0 0 0 0 0 0 0 0 0 0 0 0 0 0 0 0 0 0 0 0 0 0 0 0 0 0 0 0 0 0 0 0 0
0 0 0 0 0 0 0 0 0 0 0 0 0 0 0 0 0 0 0 0 0 0 0 0 0 0 0 0 0 0 0 0 0 0 0 0 0 0 0 0 0 0 0
0 0 0 0 0 0 0 0 0 0 0 0 0 0 0 0 0 0 0 0 0 0 0 0 0 0 0 0 0 0 0 0 0 0 0 0 0 0 0 0 0 0 0
0 0 0 0 0 0 0 0 0 0 0 0 0 0 0 0 0 0 0 0 0 0 0 0 0 0 0 0 0 0 0 0 0 0 0 0 0 0 0 0 0 0 0
Wind_Speed
2 2 2 4 5 5 6 6 6 5 5 5 4 4 4 3 3 3 4 4 4 4 4 3 3 3 2 3 3 3 3 2 1 2 2 2 4 5 5 4 5 6 6
6 6 4 4 4 5 6 6 6 6 6 4 3 3 4 4 4 4 5 6 5 5 5 5 4 3 3 4 3 2 2 2 2 1 1 0 1 4 5 5 5 6 6
7 7 7 6 6 6 5 5 6 6 6 7 6 5 4 4 3 5 5 7 7 7 7 7 5 5 4 4 4 2 2 2 2 3 1 1 1 1 3 6 6 7 6
8 8 8 8 8 7 5 5 5 6 6 7 8 6 5 5 4 5 5 7 8 9 8 8 8 7 6 6 5 5 3 3 2 2 3 2 2 1 1 3 4 6 7
9 9 9 8 8 7 6 5 7 7 7 6 8 8 7 7 7 8 8 8 8 9 9 9 8 8 7 7 8 7 7 5 4 3 2 3 4 3 2 2 2 4 5
9 9 9 9 9 9 8 7 8 8 8 8 8 9 11 10 11 10 9 7 6 7 10 10 9 9 8 9 8 9 10 8 9 7 6 4 3 3 3 2 2 2 3
9 10 10 10 10 10 9 8 9 10 9 10 10 10 11 11 11 9 9 8 7 7 9 9 9 9 9 9 9 10 10 10 10 8 6 6 5 3 2 3 2 2 2
9 10 10 10 9 10 11 10 10 11 11 11 11 11 11 8 9 10 10 9 7 8 9 10 10 10 10 9 9 9 9 9 9 9 8 6 6 5 4 2 2 2 2
9 9 10 10 10 11 11 11 11 12 12 13 13 13 13 12 13 12 12 10 8 9 10 11 11 10 10 9 9 9 8 8 8 8 8 6 5 5 5 4 2 2 2
9 10 10 10 10 10 11 13 13 14 13 13 12 12 13 13 13 12 13 12 10 10 11 11 10 10 9 9 9 8 7 8 7 6 8 7 5 5 5 5 4 3 2
9 9 9 9 10 11 11 12 13 13 13 13 13 14 13 13 13 12 12 11 10 10 10 10 10 9 8 8 8 8 8 8 7 6 7 7 5 5 5 4 4 4 2
9 9 10 10 11 11 11 12 12 13 13 13 14 14 13 13 13 12 11 10 10 9 9 9 9 9 8 8 8 8 7 7 7 6 6 6 4 5 4 4 4 3 2
10 9 10 10 10 11 11 12 12 12 12 12 13 13 12 12 12 11 9 9 9 9 9 9 9 8 7 7 6 6 6 6 5 5 5 4 4 4 3 3 3 2 2
10 10 10 9 10 10 10 11 11 11 11 11 12 12 11 10 10 9 9 8 8 9 8 8 8 7 7 6 6 6 5 5 5 4 4 3 3 3 3 3 3 2 2
11 10 9 9 9 9 9 10 10 9 10 11 11 10 9 9 9 8 8 7 7 8 7 7 7 6 6 5 5 5 5 5 5 5 4 3 4 5 3 3 3 2 2
11 11 10 10 9 9 9 9 9 8 9 10 9 8 8 8 8 7 6 7 7 6 7 7 7 7 5 7 7 5 4 4 4 4 4 4 4 6 7 7 6 3 2
12 11 10 9 8 8 8 8 8 8 8 8 8 7 7 7 6 6 6 6 5 5 6 5 6 6 6 8 8 7 4 4 3 3 4 4 4 6 6 7 8 6 5
11 11 9 9 8 7 7 7 7 7 8 7 7 6 6 6 5 6 5 4 3 4 3 4 4 5 6 8 8 7 4 3 3 3 3 3 5 5 7 6 7 6 5
10 9 9 8 8 7 7 7 7 7 7 6 5 5 5 5 5 4 4 3 3 3 3 3 4 5 5 8 7 5 3 3 4 4 4 4 5 8 8 5 6 7 5
9 9 8 9 8 7 7 7 6 6 5 5 4 4 4 4 4 3 2 2 2 2 3 4 4 4 4 7 7 5 2 3 4 4 4 5 7 9 7 3 3 5 6
10 9 9 8 7 7 7 7 6 5 4 4 4 4 3 3 3 3 2 2 3 3 3 4 3 4 4 6 8 6 3 3 3 4 4 5 10 10 7 3 2 5 6
10 9 8 7 6 6 8 7 5 4 4 5 4 3 3 3 3 4 3 3 4 4 3 3 3 2 3 4 6 7 6 4 2 3 4 5 10 8 7 5 5 5 3
9 8 9 8 6 5 7 7 4 4 5 5 4 4 4 4 3 3 4 3 3 3 2 2 1 2 2 3 6 7 7 7 3 3 6 7 7 6 5 8 9 6 4
9 8 9 8 6 5 5 5 4 5 5 4 4 3 4 4 4 3 3 3 2 2 2 1 1 1 2 3 4 5 4 5 4 3 5 6 7 7 6 6 6 5 4
7 7 7 7 6 5 4 4 4 5 5 4 3 3 3 3 3 3 2 2 1 1 2 1 1 0 1 3 5 5 4 4 3 3 3 5 5 6 6 5 5 5 6
7 7 7 6 6 5 4 3 4 5 5 3 3 2 2 2 2 2 2 2 1 1 2 3 2 2 3 6 6 6 5 4 3 3 3 3 4 4 5 5 5 5 6
Wind_Direction
15 52 107 119 128 135 142 152 152 157 150 153 159 159 153 134 114 97 86 89 99 106 111 113 107 107 114 116 122 122 103 80 76 88 63 49 50 47 35 30 33 33 33
35 41 65 90 106 120 131 142 148 151 152 156 139 113 112 102 95 85 74 67 73 77 86 86 87 81 85 75 68 87 107 82 52 101 126 86 32 44 38 38 40 36 34
50 51 55 63 75 80 95 125 131 136 134 122 105 99 94 87 87 82 73 63 69 72 74 75 74 67 70 72 59 54 109 119 69 48 100 151 198 77 45 41 43 41 39
51 52 54 55 57 59 71 97 110 112 116 116 114 122 131 123 103 93 88 74 66 70 70 71 72 67 62 60 53 48 50 88 96 62 43 57 80 138 117 53 38 43 41
53 50 47 52 52 50 57 78 95 94 99 107 116 120 116 115 108 97 86 75 64 63 67 70 72 72 67 65 62 59 57 60 66 60 44 45 44 43 95 96 42 41 34
58 54 47 48 47 45 50 61 86 84 89 100 107 118 122 122 116 110 102 86 76 69 67 71 70 71 70 67 66 67 66 66 68 63 55 51 48 38 60 87 63 47 29
58 54 48 48 47 49 55 62 78 82 85 97 98 104 109 112 110 109 103 97 85 75 68 71 71 71 70 70 69 70 66 64 67 65 62 57 48 34 49 82 82 60 29
61 57 51 51 49 52 56 60 73 79 81 86 88 89 93 94 93 90 92 87 84 81 77 75 73 70 69 71 69 69 67 64 65 63 61 59 46 42 43 61 89 75 37
69 63 56 52 52 53 55 61 70 75 78 82 84 82 83 87 91 90 87 86 85 84 78 77 75 71 70 70 72 72 69 69 66 64 63 60 47 46 46 50 60 101 80
78 70 62 56 56 60 61 64 67 70 72 77 81 85 83 86 87 87 87 85 82 82 80 76 73 70 67 69 73 73 69 70 63 64 65 58 48 47 44 46 46 54 97
84 78 74 68 65 65 65 68 70 75 77 80 83 84 84 85 86 84 84 85 82 79 79 77 75 72 68 68 73 71 69 69 63 59 64 59 53 52 43 44 47 43 50
89 84 81 76 72 70 70 72 74 76 78 82 84 85 85 85 86 85 83 84 82 78 78 77 75 72 68 64 69 72 67 69 65 59 61 55 56 52 43 43 43 38 36
96 89 84 80 77 75 74 75 76 79 80 83 86 86 85 86 86 85 82 81 81 77 72 72 71 68 66 64 64 70 69 67 65 62 64 57 57 47 35 35 31 21 24
102 95 88 84 82 80 79 80 79 82 86 86 86 85 83 85 86 84 81 78 78 77 72 70 70 67 64 62 62 66 65 63 58 54 55 54 53 44 23 21 12 6 6
110 106 102 96 91 88 85 84 84 84 89 89 87 86 85 84 82 80 78 77 76 77 76 74 67 61 60 57 67 64 65 59 52 43 35 30 42 39 23 10 351 349 339
121 117 113 108 102 100 99 95 92 90 92 92 91 91 88 85 83 83 82 79 75 71 70 67 65 57 52 55 68 75 65 55 48 32 12 7 24 14 12 6 357 334 292
127 123 120 117 113 109 108 105 102 97 93 94 95 93 91 88 87 91 84 79 75 74 70 64 64 57 42 49 58 66 70 57 43 27 10 4 3 3 353 348 348 340 312
131 129 126 120 113 108 106 105 102 98 97 95 95 96 95 92 88 86 83 81 81 80 74 66 61 56 40 44 51 58 59 52 33 16 3 352 345 351 348 338 337 332 321
128 126 123 120 117 116 116 110 101 101 101 100 98 99 102 100 94 89 85 83 88 79 74 72 63 55 31 32 43 50 40 33 16 4 360 353 344 338 346 343 337 334 332
121 120 118 116 117 120 120 114 110 108 110 112 108 102 104 106 103 100 92 84 96 96 89 74 62 58 37 26 36 41 32 22 1 349 352 358 349 339 344 337 330 330 326
122 120 117 117 121 125 120 117 117 120 123 113 106 99 99 109 110 94 80 93 99 95 84 77 57 47 32 22 28 31 35 11 349 348 346 341 341 345 353 349 294 285 299
121 120 117 115 115 122 122 122 128 133 119 110 104 93 84 93 99 95 83 83 99 96 83 75 52 28 18 17 12 16 19 11 353 337 329 326 339 357 12 16 358 346 347
125 121 120 115 109 119 129 131 140 130 116 107 100 91 84 75 80 94 93 79 80 93 91 87 60 4 353 354 2 5 5 6 2 321 325 346 7 17 23 22 20 21 20
126 125 124 122 119 120 123 132 135 129 119 113 107 106 100 85 71 71 83 92 96 101 105 103 76 358 343 350 352 351 353 359 5 355 354 12 28 35 26 17 16 18 12
125 127 129 131 133 133 132 139 138 130 121 119 116 110 105 105 91 75 70 94 105 171 156 167 174 118 345 322 329 335 337 338 338 352 19 24 18 17 11 4 3 5 8
129 129 131 132 135 137 141 139 137 134 129 123 122 122 125 125 118 109 69 51 82 95 156 179 186 241 263 296 323 345 2 17 45 63 45 27 18 14 5 357 352 355 360